Osceola, WI

2:53 AM CDT on September 23, 2017 (GMT -0500)
Simenstad Municipal

Weather History for KOEO - November, 2013

Change the Weather History Date:

Friday, November 29, 2013

  Actual Average (KANE) Record (KANE)
Temperature  
Mean Temperature 18 °F -  
Max Temperature 31 °F 34 °F 62 °F (1998)
Min Temperature 5 °F 20 °F 8 °F (2007)
Degree Days  
Heating Degree Days 47    
Moisture  
Dew Point 14 °F    
Average Humidity 72    
Maximum Humidity 89    
Minimum Humidity 54    
Precipitation  
Precipitation 0.00 in - - ()
Sea Level Pressure  
Sea Level Pressure 30.40 in    
Wind  
Wind Speed 5 mph (SSE)    
Max Wind Speed 18 mph    
Max Gust Speed 26 mph    
Visibility 10 miles    
Events      
Averages and records for this station are not official NWS values.
T = Trace of Precipitation, MM = Missing Value Source: NWS Daily Summary

Daily Weather History Graph

Daily Weather History Graph

Search for Another Location

Airport or City:

Trip Planner

Search our weather history database for the weather conditions in past years. The results will help you decide how hot, cold, wet, or windy it might be!

Date:

Astronomy

Nov. 29, 2013 Rise Set
Actual Time 7:27 AM CST 4:30 PM CST
Civil Twilight 6:54 AM CST 5:03 PM CST
Nautical Twilight 6:17 AM CST 5:40 PM CST
Astronomical Twilight 5:42 AM CST 6:15 PM CST
Moon 3:24 AM CST (11/29) 2:23 PM CST (11/29)
Length of Visible Light 10h 08m
Length of Day
9h 02m
Waning Crescent, 14% of the Moon is Illuminated
Nov 29
Waning Crescent
Dec 2
New
Dec 9
First Quarter
Dec 17
Full
Dec 25
Last Quarter

Hourly Weather History & Observations

Time (CST) Temp. Windchill Dew Point Humidity Pressure Visibility Wind Dir Wind Speed Gust Speed Precip Events Conditions
12:15 AM 7.2 °F - 3.9 °F 87% 30.53 in 10.0 mi Calm Calm - N/A   Clear
12:35 AM 7.2 °F - 4.5 °F 89% 30.53 in 10.0 mi Calm Calm - N/A   Clear
12:55 AM 7.2 °F - 4.5 °F 89% 30.53 in 10.0 mi Calm Calm - N/A   Clear
1:15 AM 6.6 °F - 3.2 °F 86% 30.53 in 10.0 mi Calm Calm - N/A   Clear
1:35 AM 5.4 °F - 2.1 °F 86% 30.53 in 10.0 mi Calm Calm - N/A   Clear
1:55 AM 6.3 °F - 3.2 °F 87% 30.53 in 10.0 mi Calm Calm - N/A   Clear
2:15 AM 6.1 °F - 2.3 °F 84% 30.53 in 10.0 mi Calm Calm - N/A   Clear
2:35 AM 5.9 °F - 2.5 °F 86% 30.53 in 10.0 mi Calm Calm - N/A   Clear
2:55 AM 6.3 °F - 2.8 °F 86% 30.53 in 10.0 mi Calm Calm - N/A   Clear
3:15 AM 6.6 °F - 3.4 °F 87% 30.53 in 10.0 mi Calm Calm - N/A   Clear
3:35 AM 5.7 °F - 2.3 °F 86% 30.53 in 10.0 mi Calm Calm - N/A   Clear
3:55 AM 6.4 °F - 2.8 °F 85% 30.53 in 10.0 mi Calm Calm - N/A   Clear
4:15 AM 5.7 °F - 2.7 °F 87% 30.52 in 10.0 mi Calm Calm - N/A   Clear
4:35 AM 7.3 °F - 4.5 °F 88% 30.53 in 10.0 mi Calm Calm - N/A   Clear
4:55 AM 9.0 °F - 6.3 °F 89% 30.53 in 10.0 mi Calm Calm - N/A   Clear
5:15 AM 11.7 °F - 8.6 °F 88% 30.53 in 10.0 mi Calm Calm - N/A   Clear
5:35 AM 12.6 °F - 9.3 °F 87% 30.54 in 10.0 mi Calm Calm - N/A   Clear
5:55 AM 13.6 °F 7.7 °F 10.4 °F 87% 30.53 in 10.0 mi East 3.5 mph - N/A   Clear
6:15 AM 14.0 °F 8.2 °F 10.9 °F 88% 30.53 in 10.0 mi ESE 3.5 mph - N/A   Clear
6:35 AM 14.7 °F 7.3 °F 11.1 °F 86% 30.53 in 10.0 mi ESE 4.6 mph - N/A   Clear
6:55 AM 15.3 °F 6.6 °F 11.3 °F 84% 30.52 in 10.0 mi ESE 5.8 mph - N/A   Clear
7:15 AM 15.6 °F 7.0 °F 11.3 °F 83% 30.52 in 10.0 mi SE 5.8 mph - N/A   Clear
7:35 AM 15.4 °F 8.1 °F 11.7 °F 85% 30.52 in 10.0 mi ESE 4.6 mph - N/A   Clear
7:55 AM 16.5 °F 9.4 °F 12.2 °F 83% 30.53 in 10.0 mi SE 4.6 mph - N/A   Scattered Clouds
8:15 AM 17.1 °F 8.7 °F 12.7 °F 83% 30.53 in 10.0 mi ESE 5.8 mph - N/A   Clear
8:35 AM 18.0 °F 9.8 °F 13.5 °F 83% 30.52 in 10.0 mi SE 5.8 mph - N/A   Clear
8:55 AM 18.9 °F 12.1 °F 14.2 °F 82% 30.52 in 10.0 mi SE 4.6 mph - N/A   Clear
9:15 AM 20.5 °F 12.8 °F 14.9 °F 79% 30.52 in 10.0 mi SE 5.8 mph - N/A   Clear
9:35 AM 21.2 °F 11.7 °F 15.1 °F 77% 30.52 in 10.0 mi SE 8.1 mph - N/A   Clear
9:55 AM 22.1 °F 12.8 °F 15.4 °F 76% 30.51 in 10.0 mi SE 8.1 mph - N/A   Mostly Cloudy
10:15 AM 23.5 °F 13.7 °F 15.8 °F 72% 30.51 in 10.0 mi SE 9.2 mph - N/A   Overcast
10:35 AM 24.8 °F 14.6 °F 15.3 °F 67% 30.51 in 10.0 mi SSE 10.4 mph - N/A   Mostly Cloudy
10:55 AM 26.4 °F 16.0 °F 15.6 °F 64% 30.50 in 10.0 mi SSE 11.5 mph - N/A   Clear
11:15 AM 27.3 °F 16.1 °F 15.6 °F 61% 30.48 in 10.0 mi SSE 13.8 mph 19.6 mph N/A   Clear
11:35 AM 26.2 °F 15.2 °F 15.1 °F 63% 30.48 in 10.0 mi SSE 12.7 mph 17.3 mph N/A   Clear
11:55 AM 27.9 °F 17.3 °F 15.6 °F 60% 30.46 in 10.0 mi South 12.7 mph 19.6 mph N/A   Clear
12:15 PM 27.7 °F 16.6 °F 15.3 °F 60% 30.45 in 10.0 mi SSE 13.8 mph - N/A   Clear
12:35 PM 27.7 °F 17.6 °F 15.6 °F 61% 30.43 in 10.0 mi South 11.5 mph - N/A   Clear
12:55 PM 28.8 °F 19.5 °F 16.0 °F 59% 30.41 in 10.0 mi SSE 10.4 mph 19.6 mph N/A   Clear
1:15 PM 30.4 °F 19.5 °F 15.4 °F 54% 30.40 in 10.0 mi South 15.0 mph 19.6 mph N/A   Clear
1:35 PM 28.9 °F 19.8 °F 16.0 °F 58% 30.39 in 10.0 mi SSE 10.4 mph - N/A   Clear
1:55 PM 29.7 °F 20.1 °F 16.5 °F 58% 30.38 in 10.0 mi SSE 11.5 mph - N/A   Clear
2:15 PM 29.7 °F 20.7 °F 16.7 °F 59% 30.37 in 10.0 mi SSE 10.4 mph - N/A   Clear
2:35 PM 29.8 °F 20.9 °F 16.9 °F 59% 30.36 in 10.0 mi SSE 10.4 mph 16.1 mph N/A   Clear
2:55 PM 29.8 °F 20.9 °F 17.1 °F 59% 30.34 in 10.0 mi SE 10.4 mph 18.4 mph N/A   Clear
3:15 PM 30.9 °F 21.2 °F 17.4 °F 57% 30.33 in 10.0 mi SE 12.7 mph - N/A   Clear
3:35 PM 31.1 °F 22.4 °F 17.2 °F 57% 30.33 in 10.0 mi SSE 10.4 mph 17.3 mph N/A   Clear
3:55 PM 30.7 °F 23.3 °F 16.9 °F 56% 30.32 in 10.0 mi SE 8.1 mph 17.3 mph N/A   Clear
4:15 PM 30.2 °F 22.6 °F 16.7 °F 57% 30.31 in 10.0 mi SSE 8.1 mph - N/A   Clear
4:35 PM 29.5 °F 21.1 °F 16.9 °F 59% 30.30 in 10.0 mi SE 9.2 mph - N/A   Clear
4:55 PM 29.1 °F 22.1 °F 17.1 °F 61% 30.30 in 10.0 mi SE 6.9 mph - N/A   Clear
5:15 PM 29.8 °F 22.2 °F 17.6 °F 60% 30.29 in 10.0 mi SE 8.1 mph - N/A   Mostly Cloudy
5:35 PM 30.0 °F 23.2 °F 18.1 °F 61% 30.28 in 10.0 mi SE 6.9 mph - N/A   Overcast
5:55 PM 30.7 °F 22.0 °F 17.6 °F 58% 30.26 in 10.0 mi SSE 10.4 mph 17.3 mph N/A   Overcast
6:15 PM 31.1 °F 20.5 °F 18.0 °F 58% 30.26 in 10.0 mi SSE 15.0 mph 20.7 mph N/A   Overcast
6:35 PM 31.1 °F 22.4 °F 18.0 °F 58% 30.25 in 10.0 mi SSE 10.4 mph - N/A   Overcast
6:55 PM 31.1 °F 19.7 °F 17.6 °F 57% 30.24 in 10.0 mi SSE 17.3 mph 23.0 mph N/A   Overcast
7:15 PM 30.7 °F 20.0 °F 17.6 °F 58% 30.24 in 10.0 mi SSE 15.0 mph 23.0 mph N/A   Overcast
7:35 PM 30.2 °F 18.1 °F 18.0 °F 60% 30.23 in 10.0 mi SSE 18.4 mph 21.9 mph N/A   Overcast
7:55 PM 29.7 °F 17.4 °F 18.9 °F 64% 30.22 in 10.0 mi South 18.4 mph 26.5 mph N/A   Overcast
8:15 PM 28.8 °F 19.0 °F 18.9 °F 67% 30.23 in 10.0 mi South 11.5 mph - N/A   Overcast
8:35 PM 28.9 °F 18.6 °F 19.4 °F 68% 30.22 in 10.0 mi South 12.7 mph - N/A   Overcast
8:55 PM 29.3 °F 19.6 °F 19.8 °F 68% 30.22 in 10.0 mi South 11.5 mph - N/A   Overcast
9:15 PM 29.3 °F 19.6 °F 20.1 °F 69% 30.23 in 10.0 mi South 11.5 mph - N/A   Overcast
9:35 PM 29.8 °F 20.9 °F 20.3 °F 68% 30.23 in 10.0 mi South 10.4 mph - N/A   Overcast
9:55 PM 29.8 °F 23.0 °F 20.3 °F 68% 30.22 in 10.0 mi South 6.9 mph - N/A   Overcast
10:15 PM 29.8 °F 20.9 °F 20.3 °F 68% 30.21 in 10.0 mi SSE 10.4 mph - N/A   Overcast
10:35 PM 29.8 °F 21.5 °F 20.5 °F 68% 30.21 in 10.0 mi South 9.2 mph - N/A   Overcast
10:55 PM 30.2 °F 21.9 °F 20.7 °F 68% 30.20 in 10.0 mi SSE 9.2 mph - N/A   Overcast
11:15 PM 30.2 °F 22.6 °F 20.8 °F 68% 30.19 in 10.0 mi SSE 8.1 mph - N/A   Overcast
11:35 PM 30.6 °F 23.1 °F 20.8 °F 67% 30.19 in 10.0 mi SSE 8.1 mph - N/A   Overcast
11:55 PM 30.9 °F 22.2 °F 21.0 °F 67% 30.17 in 10.0 mi SSE 10.4 mph - N/A   Overcast